www.pogodaiklimat.ru

Погода и климат >> Архив погоды >> Франция >> Пуатье


ПОГОДА в Пуатье

  • Прогноз погоды в Пуатье
  • Монитор погоды в Пуатье

АРХИВ ПОГОДЫ в Пуатье

Время (UTC), дата Ветер
(напр.,м/с)
 
Видим.   Явления Облачность Т
(С)
Тd
(С)
f
(%)
Тe
(С)
Тes
(С)
Комфортность P
(гПа)
Po
(гПа)
Тmin
(С)
Tmax
(С)
R
(мм)
R24
(мм)
S
(см)
04 12.06 Ю 2 55 км 10/10 240 м
[]
+10.7 +9.9 95 +10 +10 1007.9 993.5 0.0
05 12.06 Ю 2 55 км 10/10 240 м
[]
+10.7 +10.1 96 +9 +9 1007.9 993.5 0.8
06 12.06 Ю 4
{7}
55 км 10/10 200 м
[]
+11.3 +10.5 95 +9 +9 1007.9 993.6 +9.5 +12.6 0.8 0
07 12.06 Ю 3 50 км 10/10 300 м
[]
+11.5 +10.1 91 +10 +10 1008.1 993.8
08 12.06 Ю 3 19 км слаб. дождь 10/10 300 м
[]
+11.7 +10.3 91 +10 +10 1008.1 993.8 0.2
09 12.06 Ю 5
{9}
19 км 10/10 300 м
[]
+13.7 +12.1 90 +12 +12 1007.8 993.6 1 0
10 12.06 Ю 4 19 км 10/9 450 м
[]
+12.8 +10.7 87 +11 +12 1007.9 993.7 0.8
11 12.06 ЮЗ 3 2000 м слаб. дождь 10/9 330 м
[]
+12.5 +11.6 94 +11 +12 1008.5 994.2 4
12 12.06 ЮЗ 5
{9}
45 км 10/10 600 м
[]
+14.2 +11.5 84 +12 +12 1009.0 994.8 4 0
13 12.06 ЮЗ 4 60 км 10/3 700 м
[]
+15.6 +10.8 73 +15 +19 1009.3 995.2
14 12.06 ЮЗ 4 55 км 10/6 1000 м
[]
+16.8 +9.9 64 +16 +18 1009.9 995.8
15 12.06 З 7
{12}
45 км 9/9 1000 м
[]
+16.3 +9.7 65 +15 +15 1010.3 996.2 0
16 12.06 ЮЗ 4 40 км 9/8 1080 м
[]
+17.2 +9.9 62 +17 +18 1010.7 996.6
17 12.06 З 4 30 км н/о +16.9 +6.7 51 +16 +16 1011.0 996.9
18 12.06 ЮЗ 7
{12}
35 км 8/0 2000 м
[]
+15.8 +8.8 63 +14 +15 1011.8 997.6 +11.2 +18.0 0
19 12.06 ЮЗ 3 40 км н/о +14.6 +9.4 71 +14 +14 1012.1 997.9
20 12.06 ЮЗ 2 60 км н/о +12.0 +8.7 80 +11 +11 1012.9 998.5
21 12.06 Ю 4
{5}
60 км 9/0
[]
+11.0 +8.7 86 +9 +9 1013.5 999.1 0
22 12.06 Ю 2 50 км н/о +9.8 +8.4 91 +9 +9 1013.6 999.1
23 12.06 Ю 2 55 км н/о +10.0 +8.8 92 +8 +8 1013.7 999.2
00 13.06 Ю 3
{5}
45 км н/о +9.7 +8.6 93 +7 +7 1013.6 999.1
01 13.06 Ю 2 19 км н/о +9.4 +8.5 94 +8 +8 1013.3 998.8
02 13.06 Ю 2 19 км н/о +9.3 +8.5 95 +8 +8 1013.2 998.7
03 13.06 Ю 3
{5}
19 км 8/0
[]
+9.5 +8.9 96 +7 +7 1012.8 998.3
04 13.06 Ю 1 17 км 9/9
[]
+9.4 +8.8 96 +9 +9 1012.8 998.3
05 13.06 Ю 2 16 км 8/8
[]
+10.2 +9.6 96 +9 +9 1013.1 998.6 0.2
06 13.06 Ю 5
{7}
19 км 9/9 200 м
[]
+11.4 +10.1 92 +9 +9 1013.0 998.6 +9.1 +16.0 0.2
07 13.06 Ю 2 40 км 10/5 300 м
[]
+12.4 +10.8 90 +11 +12 1013.1 998.8
08 13.06 Ю 3 45 км 9/9 360 м
[]
+14.5 +11.6 83 +14 +14 1013.2 999.0
09 13.06 ЮЗ 5
{7}
60 км 10/10 300 м
[]
+15.4 +11.6 78 +14 +14 1013.5 999.3 0.0 0
10 13.06 Ю 3 45 км 9/1 1080 м
[]
+14.5 +11.3 81 +14 +21 1013.4 999.2 0.0
11 13.06 ЮЗ 2 60 км 10/3 420 м
[]
+15.2 +11.4 78 +15 +21 1013.0 998.8 0.0
12 13.06 ЮЗ 4
{8}
19 км 8/0
[]
+17.4 +12.3 72 +17 +24 1012.7 998.6 0.0 0
13 13.06 Ю 2 18 км 8/8 870 м
[]
+18.9 +12.4 66 +20 +24 1012.2 998.2
14 13.06 ЮЗ 3 29 км 8/8 1080 м
[]
+19.7 +11.7 60 +22 +24 комфорт 1012.1 998.1
15 13.06 ЮЗ 4
{8}
19 км 9/9 1000 м
[]
+19.7 +11.2 58 +21 +22 комфорт 1011.7 997.7 0
16 13.06 ЮЗ 2 45 км 8/5 1200 м
[]
+20.0 +11.7 59 +22 +25 комфорт 1011.6 997.7
17 13.06 ЮЗ 2 18 км н/о +19.3 +11.8 62 +21 +21 комфорт 1011.5 997.5
18 13.06 З 3
{6}
17 км н/о +20.1 +11.8 59 +22 +22 комфорт 1011.3 997.4 +11.5 +21.0 0
19 13.06 З 1 55 км н/о +19.1 +11.1 60 +21 +21 комфорт 1011.6 997.6
20 13.06 С 2 60 км н/о +16.6 +11.3 71 +17 +17 1011.6 997.5
21 13.06 З 1
{4}
60 км 10/0
[]
+15.5 +10.9 74 +16 +16 1013.1 998.9 0
22 13.06 СВ 2 16 км слаб. дождь 10/10 2000 м
[]
+15.0 +11.8 81 +15 +15 1012.6 998.4 0.4
23 13.06 ЮЗ 1 18 км слаб. дождь 10/10
[]
+14.3 +13.0 92 +15 +15 1013.6 999.4 0.4
00 14.06 ЮВ 2
{4}
4900 м дождь 10/10 1500 м
[]
+13.7 +13.1 96 +13 +13 1013.6 999.3 5 0
01 14.06 ЮВ 1 8000 м дождь 10/10 2000 м
[]
+13.4 +12.5 94 +13 +13 1013.1 998.8 3
02 14.06 СВ 1 17 км 10/6 150 м
[]
+13.2 +12.6 96 +14 +14 1013.0 998.7 1
03 14.06 СЗ 2
{3}
13 км 10/10 300 м
[]
+13.3 +12.8 97 +12 +12 1013.3 999.0 5
04 14.06 СЗ 2 45 км 10/10 360 м
[]
+12.9 +11.8 93 +12 +12 1013.4 999.1
05 14.06 СЗ 2 60 км 10/10 500 м
[]
+12.7 +11.3 91 +12 +12 1013.7 999.4
06 14.06 С 2
{4}
60 км 10/10 300 м
[]
+13.0 +10.9 87 +12 +12 1014.0 999.7 +12.7 +20.0 10
07 14.06 С 1 60 км 10/10 540 м
[]
+13.6 +11.1 85 +14 +14 1014.5 1000.2
08 14.06 СВ 1 55 км 10/10 570 м
[]
+14.5 +11.8 84 +15 +15 1014.4 1000.1
09 14.06 С 2
{4}
50 км 10/10 300 м
[]
+15.7 +11.5 76 +16 +16 1014.3 1000.1 0
10 14.06 В 1 17 км 10/9 570 м
[]
+18.1 +12.5 70 +19 +20 1014.1 1000.0
11 14.06 В 1 19 км 10/4 720 м
[]
+19.4 +14.0 71 +22 +29 комфорт 1014.1 1000.1
12 14.06 С 2
{5}
16 км 8/8 600 м
[]
+19.5 +13.4 68 +22 +25 комфорт 1013.4 999.4 0
13 14.06 СЗ 1 19 км 9/5 800 м
[]
+20.1 +13.3 65 +24 +30 комфорт 1012.5 998.6
14 14.06 С 1 19 км н/о +20.6 +13.3 63 +24 +24 комфорт 1011.9 998.0
15 14.06 СЗ 3
{6}
55 км 9/9 600 м
[]
+20.3 +13.0 63 +23 +24 комфорт 1011.8 997.9 0
16 14.06 СЗ 2 55 км н/о +19.9 +12.6 63 +22 +22 комфорт 1011.6 997.7
17 14.06 СЗ 2 55 км 10/10
[]
+19.5 +13.0 66 +22 +22 комфорт 1011.8 997.8
18 14.06 СЗ 4
{6}
60 км 9/9 1000 м
[]
+18.9 +12.9 68 +20 +20 1011.9 997.9 +12.9 +20.8 0
19 14.06 СЗ 1 60 км 9/3 1410 м
[]
+18.1 +13.0 72 +19 +20 1012.2 998.2
20 14.06 З 1 13 км 9/9 1500 м
[]
+17.0 +13.1 78 +18 +18 1012.7 998.6
21 14.06 З 2
{3}
60 км 10/10 1500 м
[]
+16.2 +12.9 81 +16 +16 1013.8 999.6 0
22 14.06 ЮЗ 2 55 км 10/10 2000 м
[]
+15.6 +13.4 87 +16 +16 1014.1 999.9
23 14.06 З 1 60 км 10/10 1500 м
[]
+14.7 +10.5 76 +15 +15 1014.8 1000.5
00 15.06 З 2
{6}
60 км н/о +12.9 +9.9 82 +12 +12 1015.3 1000.9 0
01 15.06 СЗ 1 60 км н/о +11.7 +9.3 85 +12 +12 1015.6 1001.2
02 15.06 ЮЗ 1 60 км н/о +10.7 +9.0 89 +10 +10 1016.2 1001.7
03 15.06 ЮЗ 2
{4}
55 км 10/10 1000 м
[]
+11.8 +10.2 90 +11 +11 1016.4 1002.0 0
04 15.06 ЮЗ 1 40 км 10/10 1320 м
[]
+11.8 +10.2 90 +12 +12 1016.5 1002.1
05 15.06 ЮЗ 2 30 км 9/9 1380 м
[]
+11.6 +10.8 95 +11 +11 1017.2 1002.8
06 15.06 ЮЗ 1
{4}
40 км 10/10 1500 м
[]
+12.4 +11.0 91 +12 +12 1017.5 1003.1 +10.5 +18.9 0
07 15.06 ЮЗ 2 28 км 9/9 1500 м
[]
+13.8 +11.3 85 +14 +14 1018.1 1003.8
08 15.06 ЮЗ 2 50 км 10/4 480 м
[]
+14.8 +11.2 79 +14 +17 1018.7 1004.4
09 15.06 ЮЗ 5
{8}
40 км 8/8 300 м
[]
+17.1 +11.8 71 +17 +18 1018.8 1004.6 0
10 15.06 ЮЗ 2 19 км 8/8 1000 м
[]
+17.9 +10.8 63 +18 +22 1018.7 1004.5
11 15.06 З 3 19 км н/о +19.1 +11.1 60 +20 +20 1018.8 1004.7
12 15.06 ЮЗ 5
{10}
19 км н/о +19.7 +10.9 57 +21 +21 комфорт 1018.9 1004.8 0
13 15.06 ЮЗ 4 35 км 8/8 2000 м
[]
+19.7 +9.8 53 +21 +23 комфорт 1018.8 1004.7
14 15.06 З 3 45 км 10/1 1440 м
[]
+19.3 +10.0 55 +20 +26 1019.1 1005.0
15 15.06 З 6
{12}
40 км 9/9 1000 м
[]
+19.2 +10.2 56 +20 +20 1019.3 1005.2 0
16 15.06 ЮЗ 4 30 км н/о +19.6 +9.8 53 +21 +21 комфорт 1019.6 1005.5
17 15.06 ЮЗ 4 28 км н/о +18.1 +9.2 56 +18 +18 1019.9 1005.7
18 15.06 З 6
{11}
45 км н/о +16.9 +9.6 62 +16 +16 1020.3 1006.1 +12.5 +20.6 0
19 15.06 ЮЗ 3 30 км н/о +16.6 +9.5 63 +17 +17 1020.6 1006.4
20 15.06 З 2 60 км н/о +14.7 +9.5 71 +14 +14 1021.2 1006.9
21 15.06 ЮЗ 3
{5}
50 км н/о +12.1 +9.3 83 +11 +11 1022.0 1007.5 0
22 15.06 Ю 2 45 км н/о +11.5 +9.7 89 +11 +11 1022.2 1007.7
23 15.06 ЮЗ 2 35 км н/о +10.3 +9.1 92 +9 +9 1022.4 1007.8
00 16.06 ЮЗ 2
{4}
18 км н/о +10.0 +8.9 93 +8 +8 1022.6 1008.0 0
01 16.06 ЮЗ 2 13 км н/о +10.0 +9.5 97 +9 +9 1022.3 1007.7
02 16.06 ЮЗ 1 7000 м н/о +9.5 +8.9 96 +9 +9 1022.3 1007.7
03 16.06 Ю 2
{2}
7000 м н/о +9.4 +9.1 98 +8 +8 1022.1 1007.5 0.2 0
04 16.06 ЮВ 1 8000 м н/о +9.6 +9.3 98 +9 +9 1022.4 1007.8
05 16.06 ЮВ 1 8000 м н/о +10.0 +9.7 98 +9 +9 1022.7 1008.1
06 16.06 Ю 2
{3}
15 км н/о +12.0 +11.4 96 +11 +11 1022.9 1008.4 +9.0 +17.7 0.2 0
07 16.06 Ю 2 18 км н/о +14.0 +12.2 89 +14 +14 1023.2 1008.8
08 16.06 Ю 2 35 км н/о +15.7 +12.3 80 +16 +16 1023.2 1008.9
09 16.06 ЮЗ 3
{5}
19 км 8/8 600 м
[]
+17.2 +11.5 69 +17 +19 1023.0 1008.8 0
10 16.06 Ю 2 60 км 8/8 1050 м
[]
+18.1 +11.2 64 +19 +22 1022.8 1008.6
11 16.06 ЮЗ 2 30 км 10/10 1020 м
[]
+18.5 +11.1 62 +20 +20 1022.6 1008.4
12 16.06 З 2
{6}
55 км 9/9 1000 м
[]
+19.8 +11.8 60 +22 +24 комфорт 1022.0 1007.9 0
13 16.06 Ю 1 17 км н/о +21.0 +11.3 54 +24 +24 комфорт 1021.7 1007.7
14 16.06 З 1 45 км н/о +21.1 +11.4 54 +23 +23 комфорт 1021.3 1007.3
15 16.06 З 2
{6}
18 км н/о +22.8 +13.0 54 +26 +26 жарко 1020.8 1006.9 0
16 16.06 В 1 55 км н/о +22.4 +11.8 51 +25 +25 комфорт 1020.5 1006.5
17 16.06 З 1 16 км н/о +22.7 +12.9 54 +26 +26 жарко 1020.0 1006.1
18 16.06 С 2
{4}
60 км 9/9 1000 м
[]
+22.6 +11.9 51 +25 +25 комфорт 1019.9 1006.0 +12.0 +23.2 0
19 16.06 С 1 50 км н/о +20.6 +11.8 57 +24 +24 комфорт 1019.8 1005.8
20 16.06 С 1 60 км н/о +18.6 +12.3 67 +20 +20 1020.0 1005.9
21 16.06 С 2
{3}
60 км н/о +16.7 +11.6 72 +17 +17 1020.4 1006.2 0
22 16.06 С 1 55 км н/о +15.5 +11.7 78 +16 +16 1020.5 1006.2
23 16.06 СЗ 1 50 км н/о +13.8 +11.5 86 +14 +14 1020.5 1006.1
00 17.06 С 2
{2}
35 км н/о +12.9 +11.1 89 +12 +12 1020.1 1005.7 0
01 17.06 С 1 40 км н/о +12.6 +11.2 91 +13 +13 1019.9 1005.5
02 17.06 СЗ 1 35 км н/о +12.2 +10.6 90 +13 +13 1019.6 1005.2
03 17.06 СЗ 2
{3}
24 км н/о +11.2 +10.1 93 +10 +10 1019.5 1005.0 0
04 17.06 СЗ 1 18 км н/о +10.7 +9.8 94 +10 +10 1019.4 1004.9
05 17.06 СЗ 2 15 км н/о +11.4 +10.5 94 +10 +10 1019.5 1005.0
06 17.06 СЗ 3
{5}
19 км н/о +13.5 +11.9 90 +12 +12 1019.6 1005.2 +10.6 +22.6 0.2 0
07 17.06 С 2 30 км н/о +16.2 +12.9 81 +17 +17 1019.3 1005.1
08 17.06 С 2 19 км н/о +18.6 +13.7 73 +20 +20 1018.9 1004.8
09 17.06 СВ 2
{5}
26 км н/о +21.3 +14.7 66 +24 +24 комфорт 1018.3 1004.3 0
10 17.06 С 1 50 км н/о +23.5 +14.8 58 +26 +26 жарко 1018.0 1004.1
11 17.06 СВ 2 45 км н/о +24.4 +13.0 49 +26 +26 жарко 1017.4 1003.6
12 17.06 В 4
{7}
40 км н/о +25.2 +11.4 42 +27 +27 жарко 1016.8 1003.0 0
13 17.06 В 2 40 км н/о +26.1 +12.2 42 +28 +28 жарко 1016.3 1002.6
14 17.06 В 2 45 км н/о +26.4 +10.1 36 +27 +27 жарко 1015.9 1002.2
15 17.06 СВ 4
{7}
40 км н/о +27.0 +11.5 38 +28 +28 жарко 1015.3 1001.6 0
16 17.06 СВ 3
{6}
55 км н/о +26.9 +11.0 37 +28 +28 жарко 1014.6 1000.9
17 17.06 СВ 2 60 км н/о +26.6 +11.5 39 +28 +28 жарко 1014.4 1000.7
18 17.06 СВ 3
{6}
18 км н/о +26.3 +12.0 41 +28 +28 жарко 1014.2 1000.5 +13.4 +27.4 0
19 17.06 В 1 45 км н/о +25.2 +11.7 43 +27 +27 жарко 1014.3 1000.6
20 17.06 В 1 60 км н/о +23.1 +12.1 50 +26 +26 жарко 1014.1 1000.3
21 17.06 СВ 2
{4}
60 км н/о +21.3 +11.9 55 +23 +23 комфорт 1014.6 1000.7 0
22 17.06 СВ 1 60 км н/о +19.7 +12.5 63 +22 +22 комфорт 1014.5 1000.5
23 17.06 СВ 1 60 км н/о +18.6 +12.3 67 +20 +20 1014.5 1000.4
00 18.06 СВ 2
{3}
60 км н/о +17.8 +12.5 71 +18 +18 1014.2 1000.1 0
01 18.06 СВ 1 60 км 9/9
[]
+17.8 +12.7 72 +19 +19 1013.5 999.4
02 18.06 В 1 60 км 10/10
[]
+17.6 +12.9 74 +19 +19 1013.2 999.1
03 18.06 В 2
{4}
60 км 10/0
[]
+17.9 +13.0 73 +19 +19 1012.6 998.5 0
04 18.06 В 1 60 км 10/10
[]
+17.4 +13.1 76 +18 +18 1012.4 998.3
05 18.06 В 1 60 км 10/10
[]
+17.2 +13.1 77 +19 +19 1012.7 998.6
06 18.06 В 2
{3}
60 км 10/0
[]
+17.4 +13.5 78 +18 +19 1012.5 998.4 +17.2 +26.3 0
07 18.06 Ю 2 45 км 9/9
[]
+17.9 +14.6 81 +19 +19 1013.5 999.4
08 18.06 В 2 26 км слаб. дождь 10/10 2000 м
[]
+18.3 +14.6 79 +19 +19 1011.3 997.3 0.0
09 18.06 С 2
{9}
19 км н/о +21.3 +16.3 73 +25 +25 комфорт 1010.5 996.7 0.0 0
10 18.06 В 2 30 км н/о +24.8 +15.7 57 +28 +28 жарко 1009.7 996.0
11 18.06 ЮВ 3 29 км н/о +27.7 +14.3 44 +30 +30 жарко 1010.1 996.5
12 18.06 ЮВ 6
{10}
23 км н/о +28.5 +12.8 38 +30 +30 жарко 1009.5 996.0 0
13 18.06 ЮВ 3 19 км н/о +29.3 +13.9 39 +31 +31 жарко 1009.0 995.5
14 18.06 Ю 3 24 км н/о +30.0 +15.3 41 +33 +33 душно 1008.5 995.1
15 18.06 Ю 6
{10}
19 км н/о +29.9 +14.4 39 +32 +32 жарко 1008.1 994.7
16 18.06 Ю 3 21 км н/о +29.7 +15.0 41 +32 +32 душно 1007.7 994.3
17 18.06 Ю 3 29 км н/о +29.4 +15.5 43 +32 +32 душно 1007.7 994.3
18 18.06 ЮЗ 5
{8}
26 км н/о +28.2 +16.8 50 +32 +32 душно 1007.9 994.4 +17.4 +30.2
19 18.06 ЮЗ 2 18 км н/о +26.6 +17.4 57 +31 +31 душно 1008.0 994.4
20 18.06 Ю 1 19 км н/о +24.3 +16.6 62 +28 +28 душно 1008.0 994.3
21 18.06 Ю 2
{2}
55 км н/о +21.9 +16.6 72 +26 +26 душно 1008.2 994.4
22 18.06 ЮВ 1 45 км н/о +20.8 +16.6 77 +25 +25 комфорт 1007.5 993.7
23 18.06 Ю 1 45 км 8/8
[]
+20.3 +16.7 80 +25 +25 комфорт 1007.8 993.9
00 19.06 Ю 6
{14}
23 км слаб. дождь 10/10 1500 м
[]
+20.7 +16.9 79 +24 +24 комфорт 1009.9 996.0 0.4
01 19.06 Ю 2 9000 м дождь 10/10
[]
+17.6 +15.6 88 +18 +18 1010.5 996.5 1
02 19.06 З 1 30 км 10/10
[]
+17.0 +15.2 89 +18 +18 1010.1 996.0 0.2
03 19.06 СЗ 1
{2}
7000 м н/о +16.0 +14.7 92 +17 +17 1009.5 995.4 2

 

Местоположение метеостанции Пуатье (Франция): широта 46.58 долгота 0.30 высота над уровнем моря 120 м.

В архиве по умолчанию представлена погода в Пуатье за последнюю неделю. Архивные данные за месяц целиком и за предыдущие месяцы, начиная с января 2011 года, Вы можете получить, выбрав интересующий диапазон дат из раскрывающегося списка и нажав кнопку "Ввод!".


*Определитесь, кто Вы:
робот инопланетянин человек

Внимание! Время в таблицах - всемирное. Для получения местного времени необходимо прибавить поправку, которая равна 1 ч.

Смотрите также архив погоды в соседних городах и на ближайших метеорологических станциях:

Погода в Ниоре (Франция) (61 км)
Погода в Туре (Франция) (102 км)
Погода в Лиможе (Франция) (104 км)
Погода в Коньяке (Франция) (112 км)
Погода в Шатору (Франция) (112 км)
Погода в Марсе (Франция) (119 км)
Погода в Ла-Рошеле (Франция) (121 км)
Погода в Бокузе (Франция) (121 км)
Погода в Ла-Рошель аэропорту (Франция) (123 км)
Погода в Ла-Рош-сюр-Йоне (Франция) (129 км)

Пояснения к столбцам:

Ветер - указаны скорость ветра в м/с - средняя за 10 мин, порывы в срок и между сроками (в фигурных скобках) и направление, откуда дует ветер: С - северный, СВ - северо-восточный, В - восточный, ЮВ - юго-восточный, Ю - южный, ЮЗ - юго-западный, З - западный, СЗ - северо-западный.
Видимость - горизонтальная дальность видимости в метрах или километрах. При видимости от 1 до 10 км при отсутствии осадков обычно наблюдается дымка, при ухудшении видимости до 1 км и менее - туман. В сухую погоду видимость может ухудшаться дымом, пылью или мглою.
Явления - указаны атмосферные явления, наблюдавшиеся в срок или в последний час перед сроком; фигурными скобками обозначены явления, наблюдавшиеся между сроками (за 1-3 часа до срока); квадратными скобками обозначены град или гололедные отложения с указанием их диаметра в мм.
Облачность - указаны через наклонную черту общая и нижняя облачность в баллах и высота нижней границы облаков в метрах; квадратными скобками обозначены формы облаков: Ci - перистые, Cs - перисто-слоистые, Cc - перисто-кучевые, Ac - высококучевые, As - высокослоистые, Sc - слоисто-кучевые, Ns - слоисто-дождевые, Cu - кучевые, Cb - кучево-дождевые. Подробнее классификацию облаков см. в Атласе облаков (PDF).
T - Температура воздуха - температура, измеренная на высоте 2 м над землей.
Td - Температура точки росы - температура, при понижении до которой содержащийся в воздухе водяной пар достигнет насыщения.
f - Относительная влажность воздуха - влажноcть воздуха, измеренная на высоте 2 м над землей.
Te - Эффективная температура - температура, которую ощущает одетый по сезону человек в тени. Характеристика душности погоды. При расчете учитывается влияние влажности воздуха и скорости ветра на теплоощущения человека.
Tes - Эффективная температура на солнце - температура, которую ощущает человек, с поправкой на солнечный нагрев. Характеристика знойности погоды. Зависит от высоты солнца над горизонтом, облачности и скорости ветра. Ночью, в пасмурную погоду, а также при ветре 12 м/с и более поправка равна нулю.
P - Атмосферное давление - приведенное к уровню моря атмосферное давление.
Po - Атмосферное давление - измеренное на уровне метеостанции атмосферное давление.
Tmin - Минимальная температура - минимум температуры воздуха на высоте 2 м над землей.
Tmax - Максимальная температура - максимум температуры воздуха на высоте 2 м над землей.
R - Количество осадков - Количество выпавших осадков за период времени, мм. При наведении курсора мыши на число - период времени, за который выпало указанное количество осадков.
R24 - Количество осадков - Количество выпавших осадков за 24 часа, мм.
S - Снежный покров - Высота снежного покрова, см. При наведении курсора мыши на число - состояние снежного покрова и степень покрытия местности в баллах.